This is the latest recevied weather packets stored in our database for station/object KC5DAQ-27. If no packets are shown the sender has not sent any weather packets the latest 10 day(s).
| Time | Temp. | Humidity | Pressure | Rain* | Wind** | Luminosity | Snow |
|---|---|---|---|---|---|---|---|
| 1777503511 | 29.44° C | 76% | 1000.3 hPa | 0 mm | - | 290 W/m² | - |
| 1777503451 | 29.44° C | 76% | 1000.2 hPa | 0 mm | - | 336 W/m² | - |
| 1777503393 | 29.44° C | 75% | 1000.2 hPa | 0 mm | - | 473 W/m² | - |
| 1777503332 | 29.44° C | 75% | 1000.1 hPa | 0 mm | - | 455 W/m² | - |
| 1777503270 | 29.44° C | 76% | 1000.2 hPa | 0 mm | - | 533 W/m² | - |
| 1777503209 | 29.44° C | 75% | 1000.1 hPa | 0 mm | - | 517 W/m² | - |
| 1777503147 | 29.44° C | 76% | 1000.2 hPa | 0 mm | - | 338 W/m² | - |
| 1777503088 | 28.89° C | 75% | 1000.2 hPa | 0 mm | - | 348 W/m² | - |
| 1777503027 | 28.89° C | 75% | 1000.2 hPa | 0 mm | - | 271 W/m² | - |
| 1777502968 | 29.44° C | 75% | 1000.3 hPa | 0 mm | - | 258 W/m² | - |
| 1777502908 | 29.44° C | 75% | 1000.3 hPa | 0 mm | - | 250 W/m² | - |
| 1777502848 | 29.44° C | 75% | 1000.3 hPa | 0 mm | - | 234 W/m² | - |
| 1777502789 | 29.44° C | 75% | 1000.2 hPa | 0 mm | - | 209 W/m² | - |
| 1777502728 | 29.44° C | 75% | 1000.1 hPa | 0 mm | - | 193 W/m² | - |
| 1777502667 | 29.44° C | 75% | 1000.1 hPa | 0 mm | - | 174 W/m² | - |
| 1777502609 | 29.44° C | 75% | 1000.1 hPa | 0 mm | - | 165 W/m² | - |
| 1777502547 | 29.44° C | 74% | 999.9 hPa | 0 mm | - | 165 W/m² | - |
| 1777502488 | 29.44° C | 74% | 999.9 hPa | 0 mm | - | 160 W/m² | - |
| 1777502427 | 29.44° C | 74% | 999.9 hPa | 0 mm | - | 178 W/m² | - |
| 1777502368 | 29.44° C | 74% | 999.9 hPa | 0 mm | - | 230 W/m² | - |
| 1777502308 | 29.44° C | 74% | 999.9 hPa | 0 mm | - | 510 W/m² | - |
| 1777502247 | 29.44° C | 74% | 999.9 hPa | 0 mm | - | 524 W/m² | - |
| 1777502188 | 29.44° C | 75% | 1000 hPa | 0 mm | - | 457 W/m² | - |
| 1777502128 | 29.44° C | 75% | 1000 hPa | 0 mm | - | 557 W/m² | - |
| 1777502067 | 29.44° C | 75% | 1000.1 hPa | 0 mm | - | 571 W/m² | - |
* Rain latest hour (hover to see other rain measurements)
** Current wind speed in m/s (hover to see current wind gust speed)